GW1572 Weather Reports


time (UTC)temp
F
wind
direction
speed
knots
gust
knots
rain 1hr
in
rain 24hr
in
rain mn
in
humidity
%
barometer
mb
20260510194535 73 247 3.5 5.2 0.00 0.00 0.00 68 1007.1
20260510193952 73 248 6.1 9.6 0.00 0.00 0.00 68 1007.1
20260510193321 73 240 5.2 6.1 0.00 0.00 0.00 69 1007.1
20260510192731 73 258 3.5 5.2 0.00 0.00 0.00 68 1007.1
20260510192132 72 215 4.3 5.2 0.00 0.00 0.00 69 1007.1
20260510191534 71 180 4.3 6.1 0.00 0.00 0.00 70 1007.1
20260510190926 71 215 5.2 7.0 0.00 0.00 0.00 70 1007.4
20260510190319 72 228 3.5 3.5 0.00 0.00 0.00 71 1007.1
20260510185121 72 257 3.5 5.2 0.00 0.00 0.00 68 1007.1
20260510184544 72 234 3.5 6.1 0.00 0.00 0.00 71 1007.1
20260510183943 72 219 1.7 1.7 0.00 0.00 0.00 68 1007.1
20260510183349 73 209 4.3 5.2 0.00 0.00 0.00 70 1007.4
20260510182738 73 254 4.3 6.1 0.00 0.00 0.00 67 1007.1
20260510182115 72 231 3.5 5.2 0.00 0.00 0.00 68 1007.4
20260510181544 72 207 2.6 2.6 0.00 0.00 0.00 70 1007.1
20260510180934 74 183 2.6 2.6 0.00 0.00 0.00 68 1007.1
20260510180317 73 241 0.9 0.9 0.00 0.00 0.00 67 1007.1
20260510175741 72 211 0.9 0.9 0.00 0.00 0.00 68 1007.1
20260510175152 71 288 2.6 2.6 0.00 0.00 0.00 71 1007.1
20260510173950 72 233 1.7 2.6 0.00 0.00 0.00 70 1006.7
20260510173326 71 268 1.7 1.7 0.00 0.00 0.00 68 1006.7
20260510172724 72 236 2.6 3.5 0.00 0.00 0.00 71 1006.7
20260510172111 73 261 1.7 1.7 0.00 0.00 0.00 70 1006.7
20260510170336 74 263 3.5 3.5 0.00 0.00 0.00 67 1007.1
20260510165751 74 303 3.5 5.2 0.00 0.00 0.00 65 1006.7
20260510164545 72 270 2.6 2.6 0.00 0.00 0.00 69 1007.1
20260510163944 70 286 0.9 0.9 0.00 0.00 0.00 67 1007.1
20260510162725 70 318 2.6 2.6 0.00 0.00 0.00 67 1007.1
20260510161529 72 206 3.5 3.5 0.00 0.00 0.00 68 1007.1
20260510160950 72 308 2.6 3.5 0.00 0.00 0.00 71 1007.1
20260510155736 70 281 3.5 5.2 0.00 0.00 0.00 69 1006.7
20260510155150 70 301 1.7 2.6 0.00 0.00 0.00 68 1006.7
20260510154523 70 293 1.7 2.6 0.00 0.00 0.00 72 1006.7
20260510153949 69 256 1.7 2.6 0.00 0.00 0.00 72 1006.7
20260510153322 68 248 1.7 2.6 0.00 0.00 0.00 72 1006.7
20260510152733 68 278 1.7 1.7 0.00 0.00 0.00 72 1007.1
20260510152149 68 247 1.7 2.6 0.00 0.00 0.00 74 1006.7
20260510151535 68 243 2.6 2.6 0.00 0.00 0.00 73 1006.7
20260510150914 70 235 3.5 3.5 0.00 0.00 0.00 69 1006.7
20260510150339 70 230 2.6 3.5 0.00 0.00 0.00 69 1006.4
20260510145717 70 249 0.9 1.7 0.00 0.00 0.00 72 1006.4
20260510145138 70 2 1.7 1.7 0.00 0.00 0.00 67 1006.0
20260510144510 70 349 1.7 1.7 0.00 0.00 0.00 67 1006.0
20260510143926 70 259 0.9 0.9 0.00 0.00 0.00 68 1006.4
20260510143335 69 306 1.7 1.7 0.00 0.00 0.00 69 1006.4
20260510142713 69 346 1.7 2.6 0.00 0.00 0.00 69 1006.4
20260510142128 70 320 3.5 3.5 0.00 0.00 0.00 68 1006.7
20260510140929 68 11 1.7 2.6 0.00 0.00 0.00 70 1006.4
20260510135715 67 316 4.3 5.2 0.00 0.00 0.00 71 1006.4
20260510135116 68 295 0.9 1.7 0.00 0.00 0.00 73 1006.0
20260510134511 67 298 0.9 1.7 0.00 0.00 0.00 74 1006.7
20260510133348 65 325 0.9 0.9 0.00 0.00 0.00 78 1006.4
20260510132749 65 324 1.7 1.7 0.00 0.00 0.00 76 1006.4
20260510131517 65 302 0.0 0.9 0.00 0.00 0.00 81 1006.0
20260510130920 65 312 0.0 0.9 0.00 0.00 0.00 81 1006.4
20260510130331 64 346 0.9 0.9 0.00 0.00 0.00 81 1006.0
20260510125751 62 356 1.7 2.6 0.00 0.00 0.00 85 1006.0
20260510125144 61 329 0.0 0.9 0.00 0.00 0.00 88 1006.4
20260510123308 59 330 0.0 0.0 0.00 0.00 0.00 95 1006.0
20260510122729 58 271 0.0 0.0 0.00 0.00 0.00 96 1006.0
20260510122133 58 289 0.0 0.0 0.00 0.00 0.00 98 1006.0
20260510121511 57 276 0.0 0.0 0.00 0.00 0.00 99 1006.0
20260510120949 56 264 0.0 0.0 0.00 0.00 0.00 99 1006.0
20260510115743 55 294 0.0 0.0 0.00 0.00 0.00 99 1006.0
20260510114518 54 285 0.0 0.0 0.00 0.00 0.00 99 1006.0
20260510113914 54 279 0.0 0.0 0.00 0.00 0.00 99 1005.7
20260510112710 54 277 0.0 0.0 0.00 0.00 0.00 99 1005.4
20260510112131 53 285 0.0 0.0 0.00 0.00 0.00 99 1005.4
20260510111532 53 302 0.0 0.0 0.00 0.00 0.00 99 1005.0
20260510110933 53 275 0.0 0.0 0.00 0.00 0.00 99 1005.0
20260510110312 53 268 0.0 0.0 0.00 0.00 0.00 99 1005.0
20260510105747 52 276 0.0 0.0 0.00 0.00 0.00 99 1005.0
20260510105143 52 252 0.0 0.0 0.00 0.00 0.00 99 1004.7
20260510103935 52 212 0.9 0.9 0.00 0.00 0.00 99 1004.4
20260510103324 52 285 0.0 0.0 0.00 0.00 0.00 99 1004.7
20260510102717 52 272 0.0 0.0 0.00 0.00 0.00 99 1004.7
20260510102142 52 273 0.0 0.0 0.00 0.00 0.00 99 1004.7
20260510101510 52 308 0.0 0.0 0.00 0.00 0.00 99 1004.4
20260510100351 52 270 0.0 0.0 0.00 0.00 0.00 99 1004.4
20260510095710 52 254 0.0 0.0 0.00 0.00 0.00 99 1004.7
20260510095139 52 268 0.0 0.0 0.00 0.00 0.00 99 1004.4
20260510094539 52 275 0.0 0.0 0.00 0.00 0.00 98 1004.4
20260510093908 52 268 0.0 0.0 0.00 0.00 0.00 98 1004.4
20260510093327 53 268 0.0 0.0 0.00 0.00 0.00 98 1004.0
20260510092725 53 267 0.0 0.0 0.00 0.00 0.00 98 1004.4
20260510092129 53 277 0.0 0.0 0.00 0.00 0.00 98 1004.0
20260510091537 53 309 0.0 0.0 0.00 0.00 0.00 98 1004.0
20260510090909 53 262 0.0 0.0 0.00 0.00 0.00 98 1003.7
20260510090341 53 266 0.0 0.0 0.00 0.00 0.00 98 1004.0
20260510085716 53 270 0.0 0.0 0.00 0.00 0.00 98 1003.7
20260510083948 53 271 0.0 0.0 0.00 0.00 0.00 97 1003.7
20260510083352 53 275 0.0 0.0 0.00 0.00 0.00 97 1003.7
20260510082744 53 212 0.0 0.0 0.00 0.00 0.00 97 1003.7
20260510082119 53 259 0.0 0.0 0.00 0.00 0.00 97 1003.3
20260510081549 54 272 0.0 0.0 0.00 0.00 0.00 97 1003.3
20260510080918 54 295 0.0 0.0 0.00 0.00 0.00 96 1003.7
20260510080327 54 277 0.0 0.0 0.00 0.00 0.00 96 1003.3
20260510075750 54 274 0.0 0.0 0.00 0.00 0.00 96 1003.3
20260510074542 54 283 0.0 0.0 0.00 0.00 0.00 96 1003.0
20260510073942 54 274 0.0 0.0 0.00 0.00 0.00 96 1003.3
20260510073347 55 273 0.0 0.0 0.00 0.00 0.00 96 1003.0
20260510072734 55 277 0.0 0.0 0.00 0.00 0.00 96 1003.0
20260510072126 55 272 0.0 0.0 0.00 0.00 0.00 96 1003.3
20260510071546 55 263 0.0 0.0 0.00 0.00 0.00 96 1003.3
20260510070925 55 268 0.0 0.0 0.00 0.00 0.00 96 1003.3
20260510070312 54 277 0.9 0.9 0.00 0.00 0.00 96 1003.3
20260510065734 55 285 0.0 0.0 0.00 0.00 0.00 95 1003.3
20260510065141 55 283 0.0 0.0 0.00 0.00 0.00 95 1003.0
20260510063923 55 294 0.0 0.0 0.00 0.00 0.00 95 1003.3
20260510063330 56 288 0.0 0.0 0.00 0.00 0.00 94 1003.0
20260510062709 56 280 0.0 0.0 0.00 0.00 0.00 94 1003.3
20260510062146 56 314 0.0 0.0 0.00 0.00 0.00 94 1003.3
20260510061534 56 305 0.0 0.0 0.00 0.00 0.00 94 1003.3
20260510060949 56 275 0.0 0.9 0.00 0.00 0.00 94 1003.3
20260510060341 56 299 0.0 0.0 0.00 0.00 0.00 94 1003.3
20260510055725 56 280 0.0 0.0 0.00 0.00 0.00 94 1003.3
20260510055118 56 302 0.9 0.9 0.00 0.00 0.00 94 1003.3
20260510054538 56 282 0.0 0.9 0.00 0.00 0.00 93 1003.3
20260510053314 57 261 0.0 0.0 0.00 0.00 0.00 93 1003.3
20260510052149 57 252 0.0 0.0 0.00 0.00 0.00 92 1003.3
20260510051548 57 256 0.0 0.0 0.00 0.00 0.00 92 1003.3
20260510050912 57 270 0.0 0.0 0.00 0.00 0.00 92 1003.3
20260510050332 58 269 0.0 0.0 0.00 0.00 0.00 91 1003.3
20260510045721 58 282 0.0 0.0 0.00 0.00 0.00 91 1003.7
20260510045110 58 200 0.0 0.0 0.00 0.00 0.00 91 1003.3
20260510043931 58 258 0.0 0.0 0.00 0.00 0.00 91 1003.7
20260510043338 58 271 0.0 0.0 0.00 0.00 0.00 91 1003.7
20260510042711 58 273 0.0 0.0 0.00 0.00 0.00 91 1003.7
20260510042145 58 241 0.0 0.0 0.00 0.00 0.00 91 1003.3
20260510041533 58 304 0.0 0.0 0.00 0.00 0.00 91 1003.3
20260510040924 58 260 0.0 0.0 0.00 0.00 0.00 91 1003.3
20260510040343 58 274 0.0 0.0 0.00 0.00 0.00 91 1003.7
20260510035747 58 266 0.0 0.0 0.00 0.00 0.00 91 1003.7
20260510035123 58 266 0.0 0.0 0.00 0.00 0.00 91 1003.7
20260510034541 58 220 0.0 0.9 0.00 0.00 0.00 91 1003.7
20260510033909 58 351 0.9 0.9 0.00 0.00 0.00 91 1003.7
20260510033316 58 322 0.0 0.9 0.00 0.00 0.00 91 1003.7
20260510032752 58 282 0.0 0.0 0.00 0.00 0.00 91 1003.7
20260510032147 58 295 0.0 0.0 0.00 0.00 0.00 91 1003.7
20260510031524 58 263 0.0 0.0 0.00 0.00 0.00 91 1003.3
20260510030919 58 278 0.0 0.0 0.00 0.00 0.00 91 1003.3
20260510030328 58 263 0.0 0.0 0.00 0.00 0.00 90 1003.3
20260510025732 58 260 0.0 0.0 0.00 0.00 0.00 90 1003.3
20260510025123 58 262 0.0 0.0 0.00 0.00 0.00 90 1003.3
20260510023940 59 330 0.0 0.0 0.00 0.00 0.00 90 1003.3
20260510022739 59 270 0.0 0.0 0.00 0.00 0.00 89 1003.0
20260510021510 59 271 0.0 0.0 0.00 0.00 0.00 88 1002.7
20260510020952 59 253 0.0 0.0 0.00 0.00 0.00 88 1002.7
20260510015740 60 274 0.0 0.0 0.00 0.00 0.00 87 1002.7
20260510015143 60 280 0.0 0.0 0.00 0.00 0.00 86 1002.7
20260510014511 60 274 0.0 0.0 0.00 0.00 0.00 86 1002.7
20260510013946 60 264 0.0 0.0 0.00 0.00 0.00 85 1002.3
20260510012725 61 293 0.0 0.0 0.00 0.00 0.00 85 1002.0
20260510012131 61 276 0.0 0.0 0.00 0.00 0.00 84 1002.0
20260510011556 61 271 0.0 0.0 0.00 0.00 0.00 84 1002.0
20260510010951 61 269 0.0 0.0 0.00 0.00 0.00 84 1001.6
20260510010348 62 262 0.0 0.0 0.00 0.00 0.00 83 1002.0
20260510005143 62 270 0.0 0.0 0.00 0.00 0.00 81 1001.6
20260510004550 63 275 0.0 0.0 0.00 0.00 0.00 80 1001.6
20260510003308 64 273 0.0 0.0 0.00 0.00 0.00 79 1001.6
20260510002716 65 5 0.0 0.9 0.00 0.00 0.00 78 1001.6
20260510001511 67 276 0.0 0.0 0.00 0.00 0.00 74 1001.0
20260510000943 68 277 0.0 0.0 0.00 0.00 0.00 71 1001.3
20260510000349 69 256 0.0 0.0 0.00 0.00 0.00 70 1001.0
20260509235710 70 286 0.9 1.7 0.00 0.00 0.00 65 1001.0
20260509235126 70 314 1.7 1.7 0.00 0.00 0.00 64 1001.0
20260509234543 71 13 2.6 5.2 0.00 0.00 0.00 63 1001.0
20260509233949 71 340 2.6 3.5 0.00 0.00 0.00 61 1001.0
20260509233339 72 16 0.9 0.9 0.00 0.00 0.00 61 1001.0
20260509232130 72 348 1.7 2.6 0.00 0.00 0.00 61 1001.0
20260509231509 72 297 0.9 1.7 0.00 0.00 0.00 61 1001.0
20260509230951 74 236 0.9 1.7 0.00 0.00 0.00 58 1001.0
20260509230332 74 350 0.9 0.9 0.00 0.00 0.00 60 1001.0
20260509225146 73 329 1.7 2.6 0.00 0.00 0.00 58 1001.0
20260509224535 73 31 4.3 5.2 0.00 0.00 0.00 57 1001.0
20260509223928 73 332 2.6 2.6 0.00 0.00 0.00 58 1001.0
20260509223343 73 305 2.6 3.5 0.00 0.00 0.00 59 1001.0
20260509222130 74 280 2.6 3.5 0.00 0.00 0.00 58 1001.0
20260509220917 75 18 0.9 0.9 0.00 0.00 0.00 57 1000.6
20260509220325 74 335 1.7 1.7 0.00 0.00 0.00 56 1001.0
20260509215723 74 13 2.6 2.6 0.00 0.00 0.00 55 1001.0
20260509215134 74 339 3.5 3.5 0.00 0.00 0.00 56 1001.0
20260509214520 75 286 7.8 8.7 0.00 0.00 0.00 56 1001.3
20260509213334 75 312 2.6 3.5 0.00 0.00 0.00 56 1001.0
20260509212738 74 299 1.7 1.7 0.00 0.00 0.00 57 1001.0
20260509212145 73 26 4.3 6.1 0.00 0.00 0.00 57 1001.3
20260509211542 74 324 3.5 3.5 0.00 0.00 0.00 57 1001.3
20260509210931 71 302 1.7 1.7 0.00 0.00 0.00 61 1001.0
20260509210318 72 9 3.5 3.5 0.00 0.00 0.00 59 1001.3
20260509205747 73 358 2.6 3.5 0.00 0.00 0.00 58 1001.0
20260509205134 73 299 2.6 2.6 0.00 0.00 0.00 57 1001.0
20260509204537 72 296 0.9 0.9 0.00 0.00 0.00 60 1001.0
20260509203950 72 308 3.5 5.2 0.00 0.00 0.00 59 1001.3
20260509203321 71 3 1.7 1.7 0.00 0.00 0.00 60 1001.3
20260509202753 72 320 1.7 1.7 0.00 0.00 0.00 61 1001.0
20260509202126 72 290 5.2 7.0 0.00 0.00 0.00 57 1001.3
20260509201532 72 341 3.5 3.5 0.00 0.00 0.00 59 1001.3
20260509200939 71 302 3.5 5.2 0.00 0.00 0.00 63 1001.0
20260509200309 73 5 3.5 3.5 0.00 0.00 0.00 60 1001.3
20260509195125 72 345 3.5 5.2 0.00 0.00 0.00 62 1001.3